Starlink 30558

operational
NORAD ID: 58060 Int'l Des: 2023-158 Owner: SPXS Country: US Constellation: starlink
LEOCIRCULAR

About Starlink 30558

Description loading...

Live Position

Loading 3D Globe...

Upcoming Passes

Altitude History

Altitude vs Time

uPlot chart will show altitude changes over time

Two-Line Element Set

1 58060U 23158K 25306.43220541 .00001012 00000-0 89966-4 0 9991
2 58060 43.0046 2.2185 0001337 269.5587 90.5102 15.02533455114389
Epoch: Nov 2, 2025 • Age: 40 hours

Current Status

Altitude 563.1 km
Velocity 7.59 km/s
Sub-Earth Point 42.96°N, 6.82°W
Launch Date Oct 13, 2023
Age 2 years
Type internet

Technical Details

Classification Payload
Mass 730.00 kg
Dry Mass 700.00 kg
Total Mass 730.00 kg
Length 0.30 m
Diameter 4.10 m
Span 29.00 m
Shape Box + pan
Manufacturer SPXS
Bus Type Starlink V2M
Phase Status In Orbit
Owner/State SPXS/US

Large Constellations

Loading constellations...